Regional Weather Roundup
Issued by NWS

Home | Current Version | Previous Version | Text Only | Print | Product List | Glossary On
Versions: 1 2 3 4 5 6 7 8 9 10 11 12 13 14 15 16 17 18 19 20 21 22 23 24 25 26 27 28 29 30 31 32 33 34 35 36 37 38 39 40 41 42 43 44 45 46 47 48 49 50
000
ASCA44 KEWX 210220
RWRMX

LATIN AMERICA AND CARIBBEAN REGIONAL WEATHER ROUNDUP
NATIONAL WEATHER SERVICE AUSTIN/SAN ANTONIO TX
900 PM CDT FRI APR 20 2018

NOTE: "FAIR" INDICATED FEW OR NO CLOUDS BELOW 12,000 FEET WITH NO
SIGNIFICANT WEATHER AND/OR OBSTRUCTIONS TO VISIBILITY.

BAJA CALIFORNIA

CITY           SKY/WX    TMP DP  RH WIND       PRES   REMARKS
LORETO           N/A    N/A N/A N/A MISG        N/A
LA PAZ         PTCLDY    72  54  53 N12       29.96
MEXICALI       CLEAR     81  25  12 SW6       29.94
S.J. DEL CABO  PTCLDY    77  54  44 NW12      29.93R
TIJUANA        CLEAR     61  52  72 W10       30.10R

NORTHWESTERN MEXICO

CITY           SKY/WX    TMP DP  RH WIND       PRES   REMARKS
CULIACAN       PTCLDY    77  57  50 W2        29.88
DURANGO        PTCLDY    77  19  11 SW16      30.11
GUAYMAS        PTCLDY    77  52  41 S7        29.86
HERMOSILLO     PTCLDY    81  36  19 W9        29.94R
CD. JUAREZ     CLEAR     70   5   8 NW14G25   29.92
LOS MOCHIS     PTCLDY    75  52  43 MISG      29.91R
OBREGON        MOCLDY    73  41  31 W7        29.89

NORTHEASTERN MEXICO

CITY           SKY/WX    TMP DP  RH WIND       PRES   REMARKS
CHIHUAHUA      PTCLDY    82  18   9 W20       29.88
MATAMOROS        N/A    N/A N/A N/A MISG        N/A
MONCLOVA         N/A    N/A N/A N/A MISG        N/A
MONTERREY      MOCLDY   N/A N/A N/A E13       29.92R
NUEVO LAREDO     N/A    N/A N/A N/A MISG        N/A
PIEDRAS NEGRAS   N/A    N/A N/A N/A MISG        N/A
REYNOSA          N/A    N/A N/A N/A MISG        N/A
SALTILLO       CLEAR     63  50  63 N9        30.09R
TORREON        PTCLDY    90  41  18 E13       29.81S
CD. VICTORIA   CLEAR     81  59  47 MISG      29.95

WESTERN MEXICO

CITY           SKY/WX    TMP DP  RH WIND       PRES   REMARKS
AGUASCALIENTES PTCLDY    79  34  19 S5        30.15
COLIMA         PTCLDY    75  66  73 CALM      30.02R
DEL BAJIO      PTCLDY    73  45  35 N5        30.19R
GUADALAJARA    PTCLDY    82  43  24 W10       30.08
MANZANILLO     PTCLDY    81  75  83 NW6       29.87R
MAZATLAN       PTCLDY    75  61  60 W5        29.87R
URUAPAN          N/A    N/A N/A N/A MISG        N/A
ZACATECAS      CLEAR     72  23  16 W10       30.19R

CENTRAL MEXICO

CITY           SKY/WX    TMP DP  RH WIND       PRES   REMARKS
CUERNAVACA       N/A    N/A N/A N/A MISG        N/A
MEXICO CITY    PTCLDY    73  34  23 NE13      30.29R
MORELIA        PTCLDY    72  52  49 SW6       30.17
POZA RICA        N/A    N/A N/A N/A MISG        N/A
PUEBLA         CLEAR     63  34  34 SE8       30.30R
QUERETARO      PTCLDY    73  46  38 E13       30.22R
S. LUIS POTOSI CLEAR     70  45  40 E7        30.16R
TAMPICO        CLEAR     75  68  78 MISG      29.99S
TOLUCA         PTCLDY    59  37  44 S8        30.37R

SOUTHERN MEXICO

CITY           SKY/WX    TMP DP  RH WIND       PRES   REMARKS
ACAPULCO       CLEAR     82  75  78 W5        29.85R
B. DE HUATULCO   N/A    N/A N/A N/A MISG        N/A
OAXACA         PTCLDY    72  50  46 E7        30.19R
P. ESCONDIDO   MOCLDY    84  73  70 S6        29.97  HX  91
VERACRUZ       PTCLDY    75  72  88 CALM      30.01R
ZIHUATANEJO    PTCLDY    82  75  78 W9        29.87R

YUCATAN PENINSULA

CITY           SKY/WX    TMP DP  RH WIND       PRES   REMARKS
CAMPECHE       CLEAR     82  72  69 N18       29.95R
CANCUN         MOCLDY    77  70  78 N7        30.07R
CHETUMAL       PTCLDY    81  72  74 E12       30.01
CD. DEL CARMEN CLEAR     81  72  74 N12       29.97
COZUMEL        PTCLDY    79  72  78 E5        30.04R
MERIDA         CLEAR     77  72  83 NE13      30.03R
MINATITLAN     PTCLDY    77  75  94 N12       29.96
TAPACHULA      CLEAR     79  73  83 CALM      29.86R
TUX. GUTIERREZ PTCLDY    81  66  61 NW12G24   29.95R
VILLAHERMOSA   CLEAR     77  72  83 NE6       29.98R

CENTRAL AMERICA

CITY           SKY/WX    TMP DP  RH WIND       PRES   REMARKS
BELIZE CITY    PTCLDY    81  75  83 E7        30.01R
MANAGUA        PTCLDY    82  75  78 SE12      29.83R

CARIBBEAN

CITY           SKY/WX    TMP DP  RH WIND       PRES   REMARKS
ARUBA          PTCLDY    81  73  78 E17       29.92S
CURACAO        PTCLDY    79  72  78 E14       29.94S
KINGSTON       MOCLDY    82  73  74 NE5       30.00R
NASSAU         PTCLDY    77  73  88 NE3       30.12R
SAN JUAN       PTCLDY    77  73  88 E7        30.06R
SANTO DOMINGO  PTCLDY    77  72  83 E5        30.03R THUNDER
ST. MAARTEN    PTCLDY    79  72  78 E13       30.06S
ST. THOMAS     MOCLDY    81  73  78 E12       30.06

$$





USA.gov is the U.S. government's official web portal to all federal, state and local government web resources and services.